Time,TemperatureF,DewpointF,PressureIn,WindDirection,WindDirectionDegrees,WindSpeedMPH,WindSpeedGustMPH,Humidity,HourlyPrecipIn,Conditions,Clouds,dailyrainin,SolarRadiationWatts/m^2,SoftwareType,DateUTC
2013-05-15 00:02:00,82.0,42.0,-100.00,South,184,9.0,18.0,24,0.00,,,0.00,446.000000,,2013-05-15 00:02:00,
2013-05-15 01:32:00,72.0,48.0,-100.00,SSE,167,7.0,14.0,42,-99.99,,,0.00,21.000000,,2013-05-15 01:32:00,
2013-05-15 01:42:00,72.0,48.0,-100.00,SSE,167,7.0,14.0,42,-99.99,,,0.00,21.000000,,2013-05-15 01:42:00,
2013-05-15 01:52:00,72.0,48.0,-100.00,SSE,167,7.0,14.0,42,-99.99,,,0.00,21.000000,,2013-05-15 01:52:00,
2013-05-15 02:02:00,72.0,48.0,-100.00,SSE,167,7.0,14.0,42,-99.99,,,0.00,21.000000,,2013-05-15 02:02:00,
2013-05-15 02:32:00,67.0,50.0,-100.00,SSE,164,5.0,11.0,54,0.00,,,0.00,0.000000,,2013-05-15 02:32:00,
2013-05-15 02:42:00,67.0,50.0,-100.00,SSE,164,5.0,11.0,54,0.00,,,0.00,0.000000,,2013-05-15 02:42:00,
2013-05-15 02:52:00,67.0,50.0,-100.00,SSE,164,5.0,11.0,54,0.00,,,0.00,0.000000,,2013-05-15 02:52:00,
2013-05-15 03:01:00,67.0,50.0,-100.00,SSE,164,5.0,11.0,54,0.00,,,0.00,0.000000,,2013-05-15 03:01:00,
2013-05-15 03:33:00,63.0,53.0,-100.00,SSE,156,6.0,10.0,70,0.00,,,0.00,0.000000,,2013-05-15 03:33:00,
2013-05-15 03:44:00,63.0,53.0,-100.00,SSE,156,6.0,10.0,70,0.00,,,0.00,0.000000,,2013-05-15 03:44:00,
2013-05-15 03:54:00,63.0,53.0,-100.00,SSE,156,6.0,10.0,70,0.00,,,0.00,0.000000,,2013-05-15 03:54:00,
2013-05-15 04:03:00,63.0,53.0,-100.00,SSE,156,6.0,10.0,70,0.00,,,0.00,0.000000,,2013-05-15 04:03:00,
2013-05-15 04:33:00,62.0,55.0,-100.00,SSE,162,5.0,11.0,78,0.00,,,0.00,0.000000,,2013-05-15 04:33:00,
2013-05-15 04:43:00,62.0,55.0,-100.00,SSE,162,5.0,11.0,78,0.00,,,0.00,0.000000,,2013-05-15 04:43:00,
2013-05-15 04:52:00,62.0,55.0,-100.00,SSE,162,5.0,11.0,78,0.00,,,0.00,0.000000,,2013-05-15 04:52:00,
2013-05-15 05:02:00,62.0,55.0,-100.00,SSE,162,5.0,11.0,78,0.00,,,0.00,0.000000,,2013-05-15 05:02:00,
2013-05-15 05:32:00,60.0,56.0,-100.00,South,173,4.0,11.0,86,0.00,,,0.00,0.000000,,2013-05-15 05:32:00,
2013-05-15 05:42:00,60.0,56.0,-100.00,South,173,4.0,11.0,86,0.00,,,0.00,0.000000,,2013-05-15 05:42:00,
2013-05-15 05:52:00,60.0,56.0,-100.00,South,173,4.0,11.0,86,0.00,,,0.00,0.000000,,2013-05-15 05:52:00,
2013-05-15 06:02:00,60.0,56.0,-100.00,South,173,4.0,11.0,86,0.00,,,0.00,0.000000,,2013-05-15 06:02:00,
2013-05-15 06:32:00,59.0,56.0,-100.00,South,175,4.0,9.0,90,0.00,,,0.00,0.000000,,2013-05-15 06:32:00,
2013-05-15 06:42:00,59.0,56.0,-100.00,South,175,4.0,9.0,90,0.00,,,0.00,0.000000,,2013-05-15 06:42:00,
2013-05-15 06:52:00,59.0,56.0,-100.00,South,175,4.0,9.0,90,0.00,,,0.00,0.000000,,2013-05-15 06:52:00,
2013-05-15 07:01:00,59.0,56.0,-100.00,South,175,4.0,9.0,90,0.00,,,0.00,0.000000,,2013-05-15 07:01:00,
2013-05-15 07:32:00,60.0,58.0,-100.00,SE,146,4.0,6.0,92,0.00,,,0.00,0.000000,,2013-05-15 07:32:00,
2013-05-15 07:42:00,60.0,58.0,-100.00,SE,146,4.0,6.0,92,0.00,,,0.00,0.000000,,2013-05-15 07:42:00,
2013-05-15 07:52:00,60.0,58.0,-100.00,SE,146,4.0,6.0,92,0.00,,,0.00,0.000000,,2013-05-15 07:52:00,
2013-05-15 08:02:00,60.0,58.0,-100.00,SE,146,4.0,6.0,92,0.00,,,0.00,0.000000,,2013-05-15 08:02:00,
2013-05-15 08:32:00,59.0,57.0,-100.00,SSE,157,5.0,7.0,94,0.00,,,0.00,0.000000,,2013-05-15 08:32:00,
2013-05-15 08:42:00,59.0,57.0,-100.00,SSE,157,5.0,7.0,94,0.00,,,0.00,0.000000,,2013-05-15 08:42:00,
2013-05-15 08:53:00,59.0,57.0,-100.00,SSE,157,5.0,7.0,94,0.00,,,0.00,0.000000,,2013-05-15 08:53:00,
2013-05-15 09:01:00,59.0,57.0,-100.00,SSE,157,5.0,7.0,94,0.00,,,0.00,0.000000,,2013-05-15 09:01:00,
2013-05-15 09:33:00,60.0,59.0,-100.00,South,172,3.0,9.0,96,0.00,,,0.00,0.000000,,2013-05-15 09:33:00,
2013-05-15 09:42:00,60.0,59.0,-100.00,South,172,3.0,9.0,96,0.00,,,0.00,0.000000,,2013-05-15 09:42:00,
2013-05-15 09:53:00,60.0,59.0,-100.00,South,172,3.0,9.0,96,0.00,,,0.00,0.000000,,2013-05-15 09:53:00,
2013-05-15 10:02:00,60.0,59.0,-100.00,South,172,3.0,9.0,96,0.00,,,0.00,0.000000,,2013-05-15 10:02:00,
2013-05-15 10:05:00,60.0,59.0,-100.00,SSE,152,4.0,7.0,95,0.00,,,0.00,0.000000,,2013-05-15 10:05:00,
2013-05-15 10:32:00,60.0,59.0,-100.00,SSE,152,4.0,7.0,95,0.00,,,0.00,0.000000,,2013-05-15 10:32:00,
2013-05-15 10:43:00,60.0,59.0,-100.00,SSE,152,4.0,7.0,95,0.00,,,0.00,0.000000,,2013-05-15 10:43:00,
2013-05-15 10:52:00,60.0,59.0,-100.00,SSE,152,4.0,7.0,95,0.00,,,0.00,0.000000,,2013-05-15 10:52:00,
2013-05-15 11:05:00,60.0,59.0,-100.00,SE,133,4.0,7.0,95,0.00,,,0.00,0.000000,,2013-05-15 11:05:00,
2013-05-15 11:39:00,60.0,59.0,-100.00,SE,133,4.0,7.0,95,0.00,,,0.00,0.000000,,2013-05-15 11:39:00,
2013-05-15 11:50:00,60.0,59.0,-100.00,SE,133,4.0,7.0,95,0.00,,,0.00,0.000000,,2013-05-15 11:50:00,
2013-05-15 12:00:00,60.0,59.0,-100.00,SE,133,4.0,7.0,95,0.00,,,0.00,0.000000,,2013-05-15 12:00:00,
2013-05-15 12:05:00,60.0,59.0,-100.00,ESE,121,3.0,6.0,97,0.00,,,0.00,7.000000,,2013-05-15 12:05:00,
2013-05-15 12:38:00,60.0,59.0,-100.00,ESE,121,3.0,6.0,97,0.00,,,0.00,7.000000,,2013-05-15 12:38:00,
2013-05-15 12:49:00,60.0,59.0,-100.00,ESE,121,3.0,6.0,97,0.00,,,0.00,7.000000,,2013-05-15 12:49:00,
2013-05-15 12:57:00,60.0,59.0,-100.00,ESE,121,3.0,6.0,97,0.00,,,0.00,7.000000,,2013-05-15 12:57:00,
2013-05-15 14:05:00,71.0,68.0,-100.00,South,191,4.0,10.0,90,-99.99,,,0.00,87.000000,,2013-05-15 14:05:00,
2013-05-15 14:39:00,71.0,68.0,-100.00,South,191,4.0,10.0,90,-99.99,,,0.00,87.000000,,2013-05-15 14:39:00,
2013-05-15 14:51:00,71.0,68.0,-100.00,South,191,4.0,10.0,90,-99.99,,,0.00,87.000000,,2013-05-15 14:51:00,
2013-05-15 14:59:00,71.0,68.0,-100.00,South,191,4.0,10.0,90,-99.99,,,0.00,87.000000,,2013-05-15 14:59:00,
2013-05-15 15:05:00,74.0,65.0,-100.00,SSE,162,8.0,15.0,74,0.00,,,0.00,360.000000,,2013-05-15 15:05:00,
2013-05-15 15:40:00,74.0,65.0,-100.00,SSE,162,8.0,15.0,74,0.00,,,0.00,360.000000,,2013-05-15 15:40:00,
2013-05-15 15:48:00,74.0,65.0,-100.00,SSE,162,8.0,15.0,74,0.00,,,0.00,360.000000,,2013-05-15 15:48:00,
2013-05-15 16:01:00,74.0,65.0,-100.00,SSE,162,8.0,15.0,74,0.00,,,0.00,360.000000,,2013-05-15 16:01:00,
2013-05-15 16:05:00,77.0,63.0,-100.00,SSW,198,8.0,16.0,63,0.00,,,0.00,554.000000,,2013-05-15 16:05:00,
2013-05-15 16:51:00,77.0,63.0,-100.00,SSW,198,8.0,16.0,63,0.00,,,0.00,554.000000,,2013-05-15 16:51:00,
2013-05-15 16:59:00,77.0,63.0,-100.00,SSW,198,8.0,16.0,63,0.00,,,0.00,554.000000,,2013-05-15 16:59:00,
2013-05-15 18:05:00,75.0,63.0,-100.00,South,171,8.0,16.0,67,-99.99,,,0.00,212.000000,,2013-05-15 18:05:00,
2013-05-15 18:38:00,75.0,63.0,-100.00,South,171,8.0,16.0,67,-99.99,,,0.00,212.000000,,2013-05-15 18:38:00,
2013-05-15 18:49:00,75.0,63.0,-100.00,South,171,8.0,16.0,67,-99.99,,,0.00,212.000000,,2013-05-15 18:49:00,
2013-05-15 18:57:00,75.0,63.0,-100.00,South,171,8.0,16.0,67,-99.99,,,0.00,212.000000,,2013-05-15 18:57:00,
2013-05-15 21:42:00,73.0,65.0,-100.00,SSE,158,5.0,15.0,77,-99.99,,,-99.99,129.000000,,2013-05-15 21:42:00,
2013-05-15 21:53:00,73.0,65.0,-100.00,SSE,158,5.0,15.0,77,-99.99,,,-99.99,129.000000,,2013-05-15 21:53:00,
2013-05-15 22:00:00,73.0,65.0,-100.00,SSE,158,5.0,15.0,77,-99.99,,,-99.99,129.000000,,2013-05-15 22:00:00,